Weather History for Lemoore NAS, CA

Change the Weather History Date:

Monday, December 3, 2012

  Actual Average Record
Temperature  
Mean Temperature 56 °F -  
Max Temperature 63 °F 56 °F 68 °F (2007)
Min Temperature 48 °F 37 °F 26 °F (2004)
Degree Days  
Heating Degree Days 10    
Growing Degree Days 6 (Base 50)    
Moisture  
Dew Point 49 °F    
Average Humidity 89    
Maximum Humidity 100    
Minimum Humidity 60    
Precipitation  
Precipitation 0.00 in - - ()
Sea Level Pressure  
Sea Level Pressure 30.18 in    
Wind  
Wind Speed 7 mph (WNW)    
Max Wind Speed 12 mph    
Max Gust Speed -    
Visibility 5 miles    
Events Fog    
Averages and records for this station are not official NWS values.
T = Trace of Precipitation, MM = Missing Value Source: NWS Daily Summary

Daily Weather History Graph

Daily Weather History Graph

Search for Another Location

Airport:

Trip Planner

Search our weather history database for the weather conditions in past years. The results will help you decide how hot, cold, wet, or windy it might be!

Date:

Astronomy

Dec. 03, 2012 Rise Set
Actual Time 6:55 AM PST 4:44 PM PST
Civil Twilight 6:26 AM PST 5:12 PM PST
Nautical Twilight 5:54 AM PST 5:44 PM PST
Astronomical Twilight 5:23 AM PST 6:16 PM PST
Moon 9:31 PM PST (12/3) 10:25 AM PST (12/3)
Length of Visible Light 10h 46m
Length of Day
9h 49m
Waning Gibbous, 77% of the Moon is Illuminated
Dec 3
Waning Gibbous
Dec 6
Last Quarter
Dec 13
New
Dec 19
First Quarter
Dec 28
Full

Hourly Weather History & Observations

Time (PST) Temp. Dew Point Humidity Pressure Visibility Wind Dir Wind Speed Gust Speed Precip Events Conditions
12:05 AM 55.4 °F 53.6 °F 94% 30.10 in - NW 11.5 mph - N/A   Overcast
12:56 AM 54.0 °F 52.0 °F 93% 30.10 in - NW 9.2 mph - N/A   Overcast
1:56 AM 52.0 °F 52.0 °F 100% 30.11 in - NW 9.2 mph - N/A   Scattered Clouds
2:56 AM 51.1 °F 48.9 °F 92% 30.11 in - NW 10.4 mph - N/A   Clear
3:56 AM 50.0 °F 48.0 °F 93% 30.12 in - WNW 10.4 mph - N/A   Clear
4:56 AM 48.0 °F 46.9 °F 96% 30.13 in - NW 8.1 mph - N/A   Clear
5:56 AM 48.0 °F 46.0 °F 93% 30.15 in - NW 9.2 mph - N/A   Mostly Cloudy
6:56 AM 48.0 °F 46.0 °F 93% 30.15 in - NW 10.4 mph - N/A   Partly Cloudy
7:14 AM 48.2 °F 44.6 °F 87% 30.17 in 10.0 mi NW 9.2 mph - N/A   Scattered Clouds
7:56 AM 51.1 °F 46.0 °F 83% 30.18 in 10.0 mi NW 9.2 mph - N/A   Overcast
8:56 AM 53.1 °F 48.0 °F 83% 30.20 in 10.0 mi NW 9.2 mph - N/A   Mostly Cloudy
9:56 AM 55.9 °F 48.9 °F 77% 30.21 in 10.0 mi NNW 9.2 mph - N/A   Mostly Cloudy
10:56 AM 57.9 °F 50.0 °F 75% 30.22 in 10.0 mi NW 9.2 mph - N/A   Mostly Cloudy
11:56 AM 61.0 °F 48.9 °F 64% 30.19 in 10.0 mi North 5.8 mph - N/A   Mostly Cloudy
12:56 PM 62.1 °F 48.9 °F 62% 30.18 in 10.0 mi WNW 3.5 mph - N/A   Scattered Clouds
1:56 PM 63.0 °F 50.0 °F 63% 30.17 in 10.0 mi Calm Calm - N/A   Mostly Cloudy
2:56 PM 63.0 °F 48.9 °F 60% 30.16 in 10.0 mi NNW 3.5 mph - N/A   Mostly Cloudy
3:56 PM 63.0 °F 50.0 °F 63% 30.17 in 10.0 mi Calm Calm - N/A   Mostly Cloudy
4:56 PM 57.9 °F 51.1 °F 78% 30.18 in 10.0 mi Calm Calm - N/A   Mostly Cloudy
5:56 PM 55.0 °F 53.1 °F 93% 30.20 in 10.0 mi ESE 5.8 mph - N/A   Mostly Cloudy
6:56 PM 54.0 °F 52.0 °F 93% 30.21 in 10.0 mi East 6.9 mph - N/A   Mostly Cloudy
7:56 PM 51.1 °F 51.1 °F 100% 30.22 in 7.0 mi ESE 5.8 mph - N/A   Scattered Clouds
8:51 PM 50.0 °F 50.0 °F 100% 30.22 in 1.0 mi South 3.5 mph - N/A   Scattered Clouds
8:56 PM 50.0 °F 50.0 °F 100% 30.23 in 1.0 mi SSW 4.6 mph - N/A   Scattered Clouds
9:30 PM 50.0 °F 48.2 °F 94% 30.21 in 0.5 mi SSW 4.6 mph - N/A   Mostly Cloudy
9:56 PM 48.9 °F 48.9 °F 100% 30.20 in 0.5 mi Calm Calm - N/A   Mostly Cloudy
10:08 PM 50.0 °F 48.2 °F 94% 30.20 in 0.0 mi SSW 3.5 mph - N/A Fog Fog
10:15 PM 50.0 °F 50.0 °F 100% 30.20 in 0.0 mi Calm Calm - N/A Fog Fog
10:35 PM 50.0 °F 50.0 °F 100% 30.19 in 0.0 mi Calm Calm - N/A Fog Fog
10:56 PM 50.0 °F 50.0 °F 100% 30.19 in 0.1 mi SSW 4.6 mph - N/A Fog Fog
11:18 PM 50.0 °F 50.0 °F 100% 30.18 in 0.1 mi SSE 4.6 mph - N/A Fog Fog
11:28 PM 50.0 °F 50.0 °F 100% 30.18 in 0.1 mi SSE 4.6 mph - N/A Fog Fog
11:39 PM 50.0 °F 50.0 °F 100% 30.19 in 0.1 mi South 5.8 mph - N/A Fog Fog
11:56 PM 50.0 °F 50.0 °F 100% 30.19 in 0.1 mi Calm Calm - N/A Fog Fog